Current Version              Previous Version:    01  02  03  04  05  06  07  08  09  10  11  12  13  14  15  16  17  18  19  20  21  22  23  24  25  26  27  28  29  30  
   31  32  33  34  35  36  37  38  39  40  41  42  43  44  45  46  47  48  49  50  51  52  53  54  55  56  57  58  59  60  

[Printable]
874
ASUS44 KEWX 231310
RWRTX
SOUTH TEXAS REGIONAL WEATHER ROUNDUP
NATIONAL WEATHER SERVICE AUSTIN/SAN ANTONIO TX
700 AM CST SUN NOV 23 2014

NOTE: "FAIR" INDICATED FEW OR NO CLOUDS BELOW 12,000 FEET WITH NO
SIGNIFICANT WEATHER AND/OR OBSTRUCTIONS TO VISIBILITY.

* - THESE STATIONS ARE NOT NWS OR FAA STATIONS...AND ARE NOT SUBJECT
    TO NWS AND FAA QUALITY CONTROL.

TXZ171-172-183>190-231400-
TEXAS HILL COUNTRY AND EDWARDS PLATEAU

CITY           SKY/WX    TMP DP  RH WIND       PRES   REMARKS
JUNCTION       CLEAR     44  42  93 CALM      29.70R
*LLANO         FOG       45  45 100 CALM      29.70S VSB 1/2
BURNET         MOCLDY    50  48  93 MISG      29.69R
*HORSESHOE BAY CLEAR     48  48 100 SW3       29.67S
*KERRVILLE     FOG       42  41  96 CALM      29.72R VSB 1/2
*FREDERICKSBRG CLEAR     45  44  95 CALM      29.70S
*ROCKSPRINGS   CLEAR     54  39  58 MISG      29.76R
*BOERNE STAGE  CLEAR     52  48  87 W5        29.72S
*CASTROVILLE   CLEAR     49  48  96 NW6       29.73S WCI  47
HONDO          CLEAR     39  32  76 NW6       29.74R WCI  35
*UVALDE        CLEAR     45  45  99 CALM      29.73S
DEL RIO        CLEAR     45  44  97 CALM      29.71R
LAUGHLIN AFB   CLEAR     44  42  96 CALM      29.72R
CARRIZO SPRGS  CLEAR     45  45 100 CALM      29.70F
$$

TXZ173-191>194-202-209-217>225-228-231400-
CENTRAL AND SOUTH CENTRAL TEXAS

CITY           SKY/WX    TMP DP  RH WIND       PRES   REMARKS
GEORGETOWN     CLEAR     52  52 100 SW5       29.66R
AUSTIN/BERGSTM PTCLDY    54  54 100 W10       29.67R
AUSTIN/MABRY   CLEAR     54  53  97 CALM      29.68R
*AUSTIN/EXEC   CLEAR     54  54 100 SW7       29.67R
*LAGO VISTA    PTCLDY    55  54  94 W8        29.68R
SAN MARCOS     CLEAR    N/A N/A N/A SE7       29.70R
NEW BRAUNFELS  CLEAR     54  52  93 W7        29.68S
RANDOLPH AFB   CLEAR     55  51  85 W9        29.69F
PT SAN ANTONIO CLEAR     49  48  98 N6        29.69S WCI  46
SAN ANTONIO    PTCLDY    54  50  86 NW5       29.71S
STINSON FIELD  CLEAR     50  49  96 CALM      29.69F
*PLEASANTON    CLEAR     49  48  97 CALM      29.72F
*LA GRANGE     CLOUDY    58  58  99 SW3       29.66R FOG
*GIDDINGS      PTCLDY    56  55  96 CALM      29.71R
*GONZALES      PTCLDY    54  54  99 SW3       29.68S FOG
$$

TXZ163>164-176>182-195>201-210>213-226-227-235-231400-
SOUTHEAST TEXAS

CITY           SKY/WX    TMP DP  RH WIND       PRES   REMARKS
COLLEGE STN    CLOUDY    59  58  96 SW12      29.66R
*BRYAN         CLOUDY    58  58  98 SW8       29.67R
*CALDWELL      CLOUDY    57  57 100 SW10      29.69R
*CROCKETT      LGT RAIN  63  63 100 S3        29.66F
*BRENHAM       CLOUDY    61  60  95 SW8       29.67R
HUNTSVILLE     CLOUDY    60  58  92 SW6       29.64F
CONROE         CLOUDY    60  59  96 CALM      29.66S FOG
HOUSTON BUSH   CLOUDY    62  61  96 W5        29.65F
HOUSTON HOBBY  CLOUDY    61  59  93 SW9       29.66S
*HOUSTON SW AP MOCLDY    50  50 100 SW5       29.67F WCI  49
PEARLAND       PTCLDY    60  58  92 VRB5      29.68S
HOUSTON HOOKS  PTCLDY    61  60  97 W7        29.65F
ELLINGTON FLD  MOCLDY    59  57  94 SW5       29.68S
SUGAR LAND     PTCLDY    60  58  92 SW7       29.66S
*HOUSTON EXEC  PTCLDY    59 N/A N/A W3        29.67S
*CLEVELAND MUN NOT AVBL
*WHARTON       CLEAR     56  55  95 SW8       29.69F
*COLUMBUS      FAIR      57  56  97 W5        29.67S
$$

TXZ214>216-236>238-231400-
THE UPPER TEXAS COAST

CITY           SKY/WX    TMP DP  RH WIND       PRES   REMARKS
*ORANGE        CLOUDY   N/A N/A N/A SW5       29.67F
PORT ARTHUR    CLEAR     58  57  97 CALM      29.66S
GALVESTON      CLEAR     62  61  96 SW16G26   29.67S
ANGLETON       CLEAR     58  58 100 SW8       29.68S
*BAY CITY        N/A     59  58  97 SW3       29.69F
PALACIOS       CLEAR     59  57  93 SW7       29.69S
$$

TXZ229>234-239>247-231400-
TEXAS COASTAL BEND AND RIO GRANDE PLAINS

CITY           SKY/WX    TMP DP  RH WIND       PRES   REMARKS
VICTORIA       CLEAR     58  53  84 SW7       29.70S
*BEEVILLE      CLEAR     55  55 100 SW8       29.71F
ROCKPORT       CLEAR     59  58  96 SW7       29.72S
*PORT ARANSAS  FOG       58  58  99 SW7       29.73S VSB 1/4
*PORT LAVACA   CLEAR     57  56  95 SW8       29.71S
*INGLESIDE     CLEAR     59  58  94 SW8       29.72F
CORPUS CHRISTI FOG       58  57  97 SW13      29.74S VSB 1/8
CORPUS NAS     FOG       59  59 100 SW10      29.73S VSB 1/2
*ROBSTOWN      NOT AVBL
ALICE          PTCLDY    55  54  96 SW6       29.74S FOG
KINGSVILLE NAS NOT AVBL
COTULLA        CLEAR     50  48  93 SE5       29.73S WCI  48
*FAITH RANCH   CLEAR     50  46  87 S5        29.74S WCI  48
LAREDO         CLEAR     52  50  93 S6        29.78S
$$

TXZ248>255-231400-
DEEP SOUTH TEXAS

CITY           SKY/WX    TMP DP  RH WIND       PRES   REMARKS
BROWNSVILLE    FOG       56  56 100 SW3       29.78R VSB 1/4
PORT ISABEL    FOG       56  56 100 SW3       29.77R VSB 1/4
*SOUTH PADRE   CLEAR    N/A N/A N/A CALM      29.77R
HARLINGEN      FOG       57  57 100 CALM      29.76S VSB 1/4
*HEBBRONVILLE  CLEAR     56  53  89 SW8       29.77S FOG
MCALLEN        FOG       58  57  97 CALM      29.78R VSB 1/4
*WESLACO       FOG       59  57  94 CALM      29.78R VSB 1/4
FALFURRIAS     CLOUDY    56  55  95 S6        29.77R VSB 1/4
EDINBURG       FOG       61  58  92 SW3       29.78R VSB 1/4
*ZAPATA        FOG       56  56 100 CALM      29.77R VSB 1/4
$$

TXZ213>215-236>238-242>244-246-247-251-254-255-231400-
CMAN STATIONS

STATION/POSITION TIME  TEMP    WIND        PRES    WAVE
                       AIR SEA DIR/SP/G            HT/PER
                 (UTC) (F)     (DEG/KT/KT) (MB)    (FT/S)
SABINE PASS      1300   60 59  230/  4/  7 1004.3
SEA RIM ST PARK  1300   61     220/  6/  7 1005.0
NORTH JETTY/GLS  1300   63 60  270/ 17/ 23   N/A
EAGLE POINT      1300   61 57  260/  6/ 10 1004.6
MORGANS POINT    1300   61     220/  6/  9 1004.3
MISSION/ARANSAS  1200          230/  8     1008.0
PORT O`CONNOR    1300          230/ 11/ 12   N/A
PORT ARANSAS     1300   59 62  230/  8/ 10 1006.9
MALAQUITE BEACH  1300   60 66  230/ 10/ 12 1006.4
BAFFIN BAY       1300   59 74  250/  9/ 10 1007.5
PORT ISABEL      1300   61 66  250/  2/  3 1008.2
$$

GMZ080-GMZ150>470-231400-
OFFSHORE BUOY REPORTS

STATION/POSITION TIME  TEMP    WIND        PRES    WAVE
                       AIR SEA DIR/SP/G            HT/PER
                 (UTC) (F)     (DEG/KT/KT) (MB)    (FT/S)
20 E GALVESTON   1300   64 61  220/ 17/ 21 1003.8    4/ 7
90 E PT ARANSAS  1300   71 73  230/ 17/ 19 1006.5    6/ 8
35 NE PT MANSFLD 1300   69 74  240/ 12/ 14 1007.3    5/ 8
200 E PT ISABEL  1300   66 74   40/  8/ 12 1009.9    7/ 7
$$